Tracking 27401 objects as of 3-Jun-2023
HD Live streaming from Space Station
objects crossing your sky now

COSMOS 1634

Track COSMOS 1634 now!
10-day predictions
COSMOS 1634 is classified as:


NORAD ID: 15597
Int'l Code: 1985-022A
Perigee: 963.1 km
Apogee: 1,013.4 km
Inclination: 82.9 °
Period: 104.7 minutes
Semi major axis: 7359 km
RCS: 2.2034 m2 (large)
Launch date: March 14, 1985
Source: Commonwealth of Independent States (former USSR) (CIS)
Launch site: PLESETSK MISSILE AND SPACE COMPLEX (PKMTR)
Your satellite tracking list
Your tracking list is empty




NASA's NSSDC Master Catalog

Two Line Element Set (TLE):
1 15597U 85022A   23153.83895297  .00000045  00000-0  31213-4 0  9992
2 15597  82.9384 318.8984 0034191 254.5644 222.3646 13.75159976917625
Source of the keplerian elements: AFSPC